Regional Weather Roundup
Issued by NWS State College, PA

Home | Current Version | Previous Version | Graphics & Text | Print | Product List | Glossary On
Versions: 1 2 3 4 5 6 7 8 9 10 11 12 13 14 15 16 17 18 19 20 21 22 23 24 25 26 27 28 29 30 31 32 33 34 35 36 37 38 39 40 41 42 43 44 45 46 47 48 49 50
000
ASUS41 KCTP 270003
RWRCTP

REGIONAL WEATHER ROUNDUP
NATIONAL WEATHER SERVICE STATE COLLEGE PA
700 PM EST THU FEB 26 2015

Note: "fair" indicates few or no clouds below 12,000 feet with no
significant weather and/or obstructions to visibility.

* = STATION THAT DOES NOT REPORT PRECIPITATION /E.G. RAIN...SNOW...ETC/
    THUNDER OR FOG.

PAZ002>004-007>009-013>016-020>023-029>032-270100-
WESTERN PENNSYLVANIA

CITY           SKY/WX    TMP DP  RH WIND       PRES   REMARKS
ERIE           CLOUDY    11   5  77 NW5       30.17R WCI   3
MEADVILLE        N/A      9   2  73 N7        30.09R WCI  -2
FRANKLIN*      CLOUDY    10   1  67 NW7       30.07R WCI   0
NEW CASTLE     FLURRIES  11   4  73 NW10      30.15R WCI  -2
BEAVER COUNTY  FLURRIES  12   5  73 N8        30.10R WCI   1
BUTLER*        CLOUDY    16   7  67 NW9       30.09R WCI   4
PITTSBURGH INT FLURRIES  16   9  74 NW13      30.09R WCI   2
PITTSBURGH     MOCLDY    17   7  64 N12       30.06R WCI   4
INDIANA*       CLOUDY    21  18  86 N5        30.05R WCI  15
LATROBE        FLURRIES  23  18  80 W8        30.06R WCI  14
WASHINGTON CO* CLOUDY    18  10  73 N6        30.09R WCI   9
$$

PAZ004>006-010>012-017>019-024>028-033>037-041-042-045-046-049>053-270100-
CENTRAL PENNSYLVANIA

CITY           SKY/WX    TMP DP  RH WIND       PRES   REMARKS
BRADFORD       LGT SNOW  12   5  73 N9        29.96R WCI   0
DUBOIS         CLOUDY    17  11  77 NW7       29.97R WCI   8
CLEARFIELD     CLOUDY    23  16  74 W5        29.98R
JOHNSTOWN      LGT SNOW  21  17  84 W9        29.93R FOG     WCI  11
ALTOONA        LGT SNOW  24  19  81 CALM      29.98R
STATE COLLEGE  CLOUDY    23  12  63 CALM      29.98R
WILLIAMSPORT   MOCLDY    23   9  55 N6        30.06R
SELINSGROVE    MOCLDY    22  12  65 CALM      30.05R
FT INDIANTOWN  MOCLDY    26  15  62 N2        30.05R
CAPITAL CITY   CLOUDY    27  15  61 NW6       30.06R
HARRISBURG     CLOUDY    27  21  78 NW7       30.05R
YORK           PTCLDY    25  18  74 CALM      30.04R
$$

PAZ038>040-043-044-047-048-054-055-060>062-067>071-270100-
EASTERN PENNSYLVANIA

CITY           SKY/WX    TMP DP  RH WIND       PRES   REMARKS
SCRANTON       CLOUDY    20  10  65 N8        30.01R WCI  10
MOUNT POCONO   CLOUDY    17  10  74 NW6       29.91R WCI   9
ALLENTOWN      CLOUDY    26  14  60 CALM      30.03R
QUAKERTOWN*    CLOUDY    25  16  68 CALM      30.03R
READING        PTCLDY    28  16  60 CALM      30.03R
LANCASTER      PTCLDY    27  18  69 CALM      30.04R
COATESVILLE    CLOUDY    28  19  69 CALM      30.03R
POTTSTOWN      CLOUDY    27  15  61 CALM      30.05R
BLUE BELL      MOCLDY    28  18  64 CALM      30.03S
DOYLESTOWN     CLOUDY    24  15  68 CALM      30.03R
WILLOW GROVE   NOT AVBL
NORTH PHILA    CLOUDY    29  14  53 N8        30.07R
PHILADELPHIA   MOCLDY    29  16  58 N7        30.07R
$$


USA.gov is the U.S. government's official web portal to all federal, state and local government web resources and services.